Location: Kosice
(0.0000°N, 21.2500°E)
Time: 04:57:13
(UTC+01:00)

SL-8 R/B - Pass Details

Date: 24 January 2021
Orbit: 657 x 667 km, 48.4° (Epoch: 04 March)

Event Time Altitude Azimuth Distance (km) Brightness Sun altitude
Rises 19:26:42 0° 215° (SW) 2,978 7.9 -23.4°
Reaches altitude 10° 19:29:03 10° 212° (SSW) 2,066 6.9 -24.0°
Enters shadow 19:33:30 68° 158° (SSE) 707 3.7 -25.0°
